Inside Trail Racing

Santa Cruz Trail Run

Overall Finish List

August 04, 2012


Thanks for running with Inside Trail! Inside Trail Racing

50K

Place Name City Bib No Age Gender Age Group Total Time
1 Christopher Wehan Santa Cruz CA 378 30 M 1 30-39 4:13:34.0
2 Karl Schnaitter Mountain View CA 370 30 M 2 30-39 5:06:30.6
3 Mark Tanaka Hayward CA 382 45 M 1 40-49 5:12:50.5
4 Chris Eide Palo Alto CA 355 36 M 3 30-39 5:14:17.5
5 Glenn Ohler Atascadero CA 366 50 M 1 50-59 5:25:09.9
6 Eric Schranz SACRAMENTO CA 371 37 M 4 30-39 5:36:22.4
7 Andy Roberts Tallahassee FL 368 45 M 2 40-49 5:43:10.4
8 Kevin Thayer Salinas CA 376 46 M 3 40-49 6:06:32.7
9 rolly delfin freedom CA 352 30 M 5 30-39 6:15:10.6
10 Gary Lindberg El Granada CA 359 43 M 4 40-49 6:22:18.4
11 Daniel Roed Concord CA 369 44 M 5 40-49 6:26:35.7
12 John Mark Santa Cruz CA 361 59 M 2 50-59 6:28:13.4
13 Kirk Hammond Templeton CA 356 48 M 6 40-49 6:51:27.7
14 Rob Mann Prunedale CA 360 40 M 7 40-49 6:53:08.7
15 Peter Hudec Brooklyn NY 358 42 M 8 40-49 7:06:10.6
16 Sam Hsu Fremont CA 357 51 M 3 50-59 7:06:16.1
17 Gary Dudney Salinas CA 354 59 M 4 50-59 7:14:09.0
18 Dwight Brown Los Altos CA 351 51 M 5 50-59 7:23:49.8
19 Holly Mortimer Boise ID 364 43 F 1 40-49 7:34:05.0
20 Alyshia Drake Ione CA 380 38 F 1 30-39 7:36:21.8
21 Peter Mingoa San Francisco CA 363 42 M 9 40-49 7:36:43.8
22 Joanne McCluhan CLAYTON CA 362 43 F 2 40-49 7:41:18.9
23 Michael Tarbet Felton CA 374 59 M 6 50-59 7:49:53.4
24 Dan Reisner San Ramon CA 367 40 M 10 40-49 7:58:03.5
25 Abbie Beane Monterey CA 350 30 F 2 30-39 8:14:20.1
26 Ryan Sullivan Monterey CA 373 32 M 6 30-39 8:14:22.6
27 Emily Yu San Francisco CA 379 34 F 3 30-39 8:40:19.1
28 Minel Diaz Redwood City CA 353 37 F 4 30-39 8:41:32.1